Regional Weather Roundup
Issued by NWS

Home | Current Version | Previous Version | Text Only | Print | Product List | Glossary On
Versions: 1 2 3 4 5 6 7 8 9 10 11 12 13 14 15 16 17 18 19 20 21 22 23 24 25 26 27 28 29 30 31 32 33 34 35 36 37 38 39 40 41 42 43 44 45 46 47 48 49
000
ASUS42 KFFC 150903
RWRGA
WEATHER ROUNDUP FOR GEORGIA
NATIONAL WEATHER SERVICE PEACHTREE CITY GA
500 AM EDT MON SEP 15 2014

NOTE: "FAIR" INDICATES FEW OR NO CLOUDS BELOW 12,000 FEET WITH NO
SIGNIFICANT WEATHER AND/OR OBSTRUCTIONS TO VISIBILITY.

* = USE WITH CAUTION. THE STATIONS MARKED WITH AN ASTERISK MAY NOT
REPORT WEATHER SUCH AS PRECIPITATION, FOG, OR THUNDER AND ARE NOT
QUALITY CONTROLLED BY NWS.

THE REMARK "TC" DENOTES TEMPERATURE READING IN DEGREES CELSIUS.

GAZ001>058-151000-
NORTH GEORGIA

CITY           SKY/WX    TMP DP  RH WIND       PRES   REMARKS
ATLANTA        FOG       65  64  97 E8        30.19S VSB 1/2
ATHENS         CLOUDY    65  63  93 NE6       30.19F
CHAMBLEE       LGT RAIN  64  62  93 E3        30.20S FOG
PEACHTREE CITY CLOUDY    67  66  97 VRB3      30.19F FOG
ROME           CLOUDY    67  65  93 E3        30.18S
WEST ATLANTA   CLOUDY    66  64  93 NE6       30.19S
GAINESVILLE    CLOUDY    64  62  93 NE3       30.23S FOG
CARTERSVILLE   CLOUDY    66  63  90 VRB3      30.19F


CITY           SKY/WX    TMP DP  RH WIND       PRES   REMARKS
DALTON*        CLOUDY    64  64 100 CALM      30.20R
$$

GAZ059>098-102>109-151000-
CENTRAL GEORGIA

CITY           SKY/WX    TMP DP  RH WIND       PRES   REMARKS
AUGUSTA-BUSH   CLOUDY    70  68  93 CALM      30.17S
AUGUSTA-DANIEL CLOUDY    70  68  93 NE6       30.18S
COLUMBUS       CLOUDY    73  70  90 E6        30.14F
MACON          CLOUDY    70  70 100 N5        30.16S FOG


CITY           SKY/WX    TMP DP  RH WIND       PRES   REMARKS
LAGRANGE*      CLOUDY    73  72  98 E5        30.17S FOG
SYLVANIA*      CLOUDY    73  73  98 CALM      30.17S FOG
MILLEDGEVILLE* CLOUDY    70  68  94 N3        30.17S
$$

GAZ099>101-110>166-151000-
SOUTH GEORGIA

CITY           SKY/WX    TMP DP  RH WIND       PRES   REMARKS
SAVANNAH       PTCLDY    73  70  90 N5        30.15S
VALDOSTA       CLEAR     74  72  93 CALM      30.12S
ALMA           CLEAR     74  73  97 E3        30.13S FOG
ST SIMONS      PTCLDY    78  74  87 CALM      30.13R
ALBANY         CLOUDY    75  73  93 NE3       30.15R
BRUNSWICK      PTCLDY    77  73  88 CALM      30.14R


CITY           SKY/WX    TMP DP  RH WIND       PRES   REMARKS
BAINBRIDGE*    CLEAR     75  73  94 CALM      30.12S
MOULTRIE*      CLEAR     73  73 100 CALM      30.13S
VIDALIA*       CLOUDY    72  72 100 E5        30.15S FOG
WAYCROSS*      CLEAR     76  76  99 CALM      30.13S
DOUGLAS*       CLEAR     77  73  88 CALM      30.15R
$$



USA.gov is the U.S. government's official web portal to all federal, state and local government web resources and services.